Flag for Brazil Weather past 2 weeks in Rio Branco, Acre, Brazil

Now
86 °F

Partly sunny.


Feels Like: 93 °F
Forecast: 73 / 85 °F
Wind: 3 mph from South

Location: Rio Branco Airport

Current Time: Apr 26, 2015 at 12:47:16 PM

Latest Report: Apr 26, 2015 at 12:00 PM


Visibility: N/A

Pressure: 29.92 "Hg

Humidity: 66%

Dew point: 73 °F

Location of Rio BrancoLocation

Historic Weather in Rio Branco — Graph

°F

Rio Branco temperature yesterday

Maximum temperature yesterday: 88 °F (at 1:00 PM)
Minimum temperature yesterday: 73 °F (at 12:00 AM)
Average temperature yesterday: 77 °F

Past Weeks' High & Low Weather Summary

 TemperatureHumidityPressure
High90 °F (Apr 16, 1:00 PM)100% (Apr 11, 4:00 PM)30.04 "Hg (Apr 11, 4:00 PM)
Low39 °F (Apr 11, 4:00 PM)59% (Apr 16, 12:00 PM)29.74 "Hg (Apr 20, 4:00 PM)
Average77 °F89%29.90 "Hg
* Reported Apr 11 11:00 AM — Apr 26 11:00 AM, Rio Branco, Weather by CustomWeather, © 2015

Note: Actual official high and low records may vary slightly from our data, if they occured in-between our weather recording intervals... More about our weather records

Advertising

Rio Branco weather history for previous 24 hours

 ConditionsComfort  
Time TempWeatherWind HumidityBarometerVisibility
11:00 AM
Sun, Apr 26
86 °FPartly sunny.3 mph75%29.95 "HgN/A
10:00 AM86 °FPartly sunny.6 mph75%29.98 "HgN/A
9:00 AM82 °FPartly sunny.6 mph84%29.98 "HgN/A
8:00 AM81 °FScattered clouds.6 mph89%29.98 "HgN/A
7:00 AM75 °FScattered clouds.3 mph100%29.95 "HgN/A
6:00 AM73 °FPassing clouds.3 mph94%29.95 "HgN/A
5:00 AM73 °FPassing clouds.2 mph94%29.92 "HgN/A
4:00 AM73 °FPassing clouds.3 mph94%29.92 "HgN/A
3:00 AM73 °FPassing clouds.2 mph94%29.92 "HgN/A
2:00 AM73 °FPassing clouds.5 mph94%29.92 "HgN/A
1:00 AM73 °FPassing clouds.2 mph100%29.92 "HgN/A
12:00 AM73 °FPassing clouds.2 mph100%29.95 "HgN/A
11:00 PM
Sat, Apr 25
75 °FPassing clouds.2 mph94%29.95 "HgN/A
10:00 PM75 °FThundershowers. Passing clouds.2 mph94%29.95 "HgN/A
9:00 PM75 °FPassing clouds.3 mph94%29.95 "HgN/A
8:00 PM75 °FPassing clouds.No wind94%29.92 "HgN/A
7:00 PM75 °FClear.3 mph100%29.89 "HgN/A
6:00 PM75 °FSunny.2 mph94%29.83 "Hg10 mi
5:00 PM75 °FSunny.2 mph94%29.83 "Hg10 mi
4:00 PM77 °FSunny.No wind89%29.86 "Hg10 mi
3:00 PM77 °FHeavy rain. Broken clouds.13 mph94%29.86 "Hg1 mi
2:00 PM88 °FScattered showers. Partly sunny.9 mph70%29.86 "HgN/A
1:00 PM88 °FPartly sunny.5 mph70%29.89 "HgN/A
12:00 PM84 °FScattered showers. Partly sunny.7 mph79%29.95 "HgN/A
Weather by CustomWeather, © 2015

See weather overviewHow to use our weather pages